When you browse on this site, cookies collect data to enhance your experience and personalize the content and advertising you see.
Visit our Privacy Policy to learn more. By continuing to use the site, you agree to this use of cookies and data.
  • în România
  • Lista ţărilor
  • Pe 7 zile
  • Temperatura apei
  • Meteo pe hartă
  • Widget-uri
  • user-avatar
    Intrare

    Meteo pe oră la Słupsk

    Astăzi, 7 Decembrie, Sâmbătă

    Timp Temperatura Precipitaţii Vânt Presiune Umiditate
    00:00 +2°C° 0.3 mm 7 m/s 749 mmHg 89%
    01:00 +1°C° 0.3 mm 8 m/s 748 mmHg 88%
    02:00 +2°C° 0.2 mm 7 m/s 748 mmHg 89%
    03:00 +2°C° 0.2 mm 7 m/s 747 mmHg 90%
    04:00 +3°C° 0.2 mm 7 m/s 747 mmHg 90%
    05:00 +3°C° 0.6 mm 7 m/s 746 mmHg 91%
    06:00 +4°C° 0.6 mm 7 m/s 746 mmHg 91%
    07:00 +4°C° 0.6 mm 8 m/s 746 mmHg 91%
    08:00 +4°C° 0.5 mm 8 m/s 746 mmHg 91%
    09:00 +5°C° 0.5 mm 8 m/s 745 mmHg 90%
    10:00 +5°C° 0.5 mm 8 m/s 745 mmHg 89%
    11:00 +5°C° 0.5 mm 9 m/s 745 mmHg 87%
    12:00 +6°C° 0.5 mm 9 m/s 746 mmHg 84%
    13:00 +6°C° 0.5 mm 10 m/s 746 mmHg 81%
    14:00 +6°C° 0 mm 10 m/s 746 mmHg 78%
    15:00 +5°C° 0 mm 10 m/s 747 mmHg 75%
    16:00 +5°C° 0 mm 10 m/s 747 mmHg 72%
    17:00 +5°C° 0 mm 9 m/s 748 mmHg 72%
    18:00 +5°C° 0 mm 9 m/s 749 mmHg 71%
    19:00 +5°C° 0 mm 9 m/s 749 mmHg 70%
    20:00 +3°C° 0.1 mm 9 m/s 749 mmHg 70%
    21:00 +3°C° 0.1 mm 9 m/s 750 mmHg 70%
    22:00 +3°C° 0.1 mm 9 m/s 750 mmHg 70%
    23:00 +4°C° 0 mm 8 m/s 750 mmHg 74%

    Mâine, 8 Decembrie, Duminică

    Timp Temperatura Precipitaţii Vânt Presiune Umiditate
    00:00 +3°C° 0 mm 7 m/s 751 mmHg 78%
    01:00 +3°C° 0 mm 7 m/s 751 mmHg 82%
    02:00 +3°C° 0.1 mm 6 m/s 751 mmHg 85%
    03:00 +5°C° 0.1 mm 5 m/s 750 mmHg 89%
    04:00 +5°C° 0.1 mm 5 m/s 750 mmHg 92%
    05:00 +5°C° 0.2 mm 5 m/s 750 mmHg 92%
    06:00 +4°C° 0.2 mm 6 m/s 750 mmHg 92%
    07:00 +5°C° 0.2 mm 6 m/s 750 mmHg 92%
    08:00 +5°C° 0.1 mm 7 m/s 750 mmHg 90%
    09:00 +5°C° 0.1 mm 7 m/s 749 mmHg 88%
    10:00 +5°C° 0.1 mm 7 m/s 749 mmHg 85%
    11:00 +5°C° 0 mm 8 m/s 748 mmHg 83%
    12:00 +5°C° 0 mm 8 m/s 747 mmHg 80%
    13:00 +5°C° 0 mm 9 m/s 747 mmHg 78%
    14:00 +5°C° 0.2 mm 9 m/s 746 mmHg 79%
    15:00 +5°C° 0.2 mm 9 m/s 745 mmHg 80%
    16:00 +5°C° 0.2 mm 9 m/s 744 mmHg 81%
    17:00 +6°C° 0.4 mm 9 m/s 743 mmHg 82%
    18:00 +6°C° 0.4 mm 9 m/s 743 mmHg 83%
    19:00 +7°C° 0.4 mm 10 m/s 742 mmHg 84%
    20:00 +7°C° 0.1 mm 9 m/s 742 mmHg 83%
    21:00 +7°C° 0.1 mm 9 m/s 742 mmHg 81%
    22:00 +7°C° 0.1 mm 8 m/s 742 mmHg 80%
    23:00 +6°C° 0 mm 8 m/s 743 mmHg 80%

    Poimâine, 9 Decembrie, Luni

    Timp Temperatura Precipitaţii Vânt Presiune Umiditate
    00:00 +5°C° 0 mm 7 m/s 743 mmHg 80%
    01:00 +4°C° 0 mm 7 m/s 743 mmHg 81%
    02:00 +4°C° 0 mm 7 m/s 743 mmHg 82%
    03:00 +4°C° 0 mm 7 m/s 743 mmHg 83%
    04:00 +3°C° 0 mm 7 m/s 742 mmHg 84%
    05:00 +4°C° 0.4 mm 7 m/s 742 mmHg 84%
    06:00 +4°C° 0.4 mm 7 m/s 742 mmHg 84%
    07:00 +4°C° 0.4 mm 8 m/s 743 mmHg 84%
    08:00 +4°C° 0 mm 8 m/s 743 mmHg 82%
    09:00 +4°C° 0 mm 8 m/s 743 mmHg 81%
    10:00 +4°C° 0 mm 8 m/s 743 mmHg 79%
    11:00 +4°C° 0 mm 8 m/s 743 mmHg 76%
    12:00 +5°C° 0 mm 8 m/s 743 mmHg 73%
    13:00 +5°C° 0 mm 8 m/s 743 mmHg 71%
    14:00 +5°C° 0 mm 7 m/s 743 mmHg 71%
    15:00 +5°C° 0 mm 7 m/s 743 mmHg 72%
    16:00 +5°C° 0 mm 7 m/s 742 mmHg 73%
    17:00 +5°C° 0 mm 7 m/s 742 mmHg 75%
    18:00 +4°C° 0 mm 7 m/s 743 mmHg 77%
    19:00 +4°C° 0 mm 7 m/s 743 mmHg 79%
    20:00 +4°C° 0.1 mm 6 m/s 743 mmHg 80%
    21:00 +4°C° 0.1 mm 6 m/s 743 mmHg 81%
    22:00 +5°C° 0.1 mm 5 m/s 743 mmHg 82%
    23:00 +3°C° 0.1 mm 5 m/s 743 mmHg 84%

    10 Decembrie, Marţi

    Timp Temperatura Precipitaţii Vânt Presiune Umiditate
    00:00 +4°C° 0.1 mm 4 m/s 744 mmHg 86%
    01:00 +4°C° 0.1 mm 4 m/s 744 mmHg 88%
    02:00 +4°C° 0.2 mm 4 m/s 744 mmHg 88%
    03:00 +4°C° 0.2 mm 4 m/s 745 mmHg 88%
    04:00 +4°C° 0.2 mm 4 m/s 745 mmHg 88%
    05:00 +4°C° 0.3 mm 4 m/s 746 mmHg 89%
    06:00 +3°C° 0.3 mm 5 m/s 747 mmHg 90%
    07:00 +3°C° 0.3 mm 6 m/s 748 mmHg 92%
    08:00 +3°C° 0.2 mm 7 m/s 750 mmHg 89%
    09:00 +1°C° 0.2 mm 8 m/s 751 mmHg 85%
    10:00 0°C° 0.2 mm 9 m/s 753 mmHg 82%
    11:00 +1°C° 0.1 mm 8 m/s 754 mmHg 74%
    12:00 +1°C° 0.1 mm 8 m/s 755 mmHg 65%
    13:00 +2°C° 0.1 mm 7 m/s 756 mmHg 57%
    14:00 0°C° 0 mm 7 m/s 758 mmHg 57%
    15:00 +1°C° 0 mm 6 m/s 759 mmHg 58%
    16:00 0°C° 0 mm 5 m/s 760 mmHg 59%
    17:00 0°C° 0 mm 5 m/s 761 mmHg 61%
    18:00 0°C° 0 mm 4 m/s 761 mmHg 64%
    19:00 +1°C° 0 mm 3 m/s 762 mmHg 66%
    20:00 0°C° 0 mm 3 m/s 762 mmHg 66%
    21:00 0°C° 0 mm 3 m/s 763 mmHg 66%
    22:00 +1°C° 0 mm 2 m/s 763 mmHg 67%
    23:00 +1°C° 0 mm 2 m/s 763 mmHg 67%

    11 Decembrie, Miercuri

    Timp Temperatura Precipitaţii Vânt Presiune Umiditate
    00:00 0°C° 0 mm 3 m/s 763 mmHg 67%
    01:00 0°C° 0 mm 3 m/s 763 mmHg 67%
    02:00 0°C° 0 mm 3 m/s 763 mmHg 66%
    03:00 -1°C° 0 mm 3 m/s 763 mmHg 66%
    04:00 -2°C° 0 mm 4 m/s 763 mmHg 65%
    05:00 -2°C° 0 mm 4 m/s 763 mmHg 63%
    06:00 -2°C° 0 mm 5 m/s 762 mmHg 61%
    07:00 -1°C° 0 mm 5 m/s 762 mmHg 58%
    08:00 -2°C° 0 mm 6 m/s 762 mmHg 55%
    09:00 -2°C° 0 mm 6 m/s 762 mmHg 51%
    10:00 -1°C° 0 mm 7 m/s 762 mmHg 48%
    11:00 -1°C° 0 mm 7 m/s 761 mmHg 46%
    12:00 -1°C° 0 mm 8 m/s 760 mmHg 44%
    13:00 -1°C° 0 mm 8 m/s 760 mmHg 42%
    14:00 -1°C° 0 mm 8 m/s 760 mmHg 42%
    15:00 -1°C° 0 mm 8 m/s 759 mmHg 42%
    16:00 -1°C° 0 mm 8 m/s 759 mmHg 43%
    17:00 -1°C° 0 mm 8 m/s 759 mmHg 45%
    18:00 -1°C° 0 mm 8 m/s 758 mmHg 46%
    19:00 -1°C° 0 mm 7 m/s 758 mmHg 48%
    20:00 -1°C° 0 mm 7 m/s 758 mmHg 50%
    21:00 -1°C° 0 mm 7 m/s 758 mmHg 52%
    22:00 -1°C° 0 mm 7 m/s 758 mmHg 53%
    23:00 -2°C° 0.1 mm 6 m/s 757 mmHg 58%

    12 Decembrie, Joi

    Timp Temperatura Precipitaţii Vânt Presiune Umiditate
    00:00 -2°C° 0.1 mm 6 m/s 757 mmHg 62%
    01:00 -2°C° 0.1 mm 6 m/s 757 mmHg 66%
    02:00 -2°C° 0 mm 6 m/s 756 mmHg 66%
    03:00 -1°C° 0 mm 5 m/s 756 mmHg 66%
    04:00 -1°C° 0 mm 5 m/s 756 mmHg 66%
    05:00 -1°C° 0 mm 5 m/s 756 mmHg 67%
    06:00 -1°C° 0 mm 5 m/s 755 mmHg 67%
    07:00 -1°C° 0 mm 5 m/s 755 mmHg 67%
    08:00 -1°C° 0 mm 5 m/s 755 mmHg 70%
    09:00 -1°C° 0 mm 5 m/s 755 mmHg 73%
    10:00 -1°C° 0 mm 4 m/s 755 mmHg 76%
    11:00 -1°C° 0 mm 5 m/s 755 mmHg 78%
    12:00 -1°C° 0 mm 5 m/s 755 mmHg 81%
    13:00 -1°C° 0 mm 5 m/s 754 mmHg 84%
    14:00 -1°C° 0 mm 5 m/s 754 mmHg 86%
    15:00 -1°C° 0 mm 5 m/s 754 mmHg 88%
    16:00 -1°C° 0 mm 4 m/s 754 mmHg 89%
    17:00 -1°C° 0 mm 4 m/s 754 mmHg 90%
    18:00 -1°C° 0 mm 4 m/s 753 mmHg 91%
    19:00 0°C° 0 mm 4 m/s 753 mmHg 92%
    20:00 0°C° 0 mm 5 m/s 753 mmHg 92%
    21:00 0°C° 0 mm 5 m/s 752 mmHg 91%
    22:00 0°C° 0 mm 5 m/s 752 mmHg 91%
    23:00 0°C° 0 mm 5 m/s 751 mmHg 90%
    Arată mai mult